Regional Weather Roundup
Issued by NWS

Home | Current Version | Previous Version | Graphics & Text | Print | Product List | Glossary On
Versions: 1 2 3 4 5 6 7 8 9 10 11 12 13 14 15 16 17 18 19 20 21 22 23 24 25 26 27
000
ASUS45 KBOU 222307
RWRCO

WEATHER ROUNDUP FOR COLORADO
NATIONAL WEATHER SERVICE DENVER/BOULDER CO
500 PM MDT WED MAR 22 2017

NOTE: "FAIR" INDICATES FEW OR NO CLOUDS BELOW 12000 FEET WITH NO
SIGNIFICANT WEATHER AND/OR OBSTRUCTIONS TO VISIBILITY.

COZ001>005-013-030-031-230000-
...NORTHWEST COLORADO...

CITY           SKY/WX    TMP DP  RH WIND       PRES   REMARKS
CRAIG          FAIR      64  21  19 S21G35    29.89S
HAYDEN         FAIR      59  25  27 S23G32    29.92F
MEEKER         CLOUDY    62  24  23 S18G29    29.91F
MOUNT WERNER   NOT AVBL
STEAMBOAT SPGS FAIR      58  25  28 S9G21     29.94S
WALDEN         NOT AVBL
$$

COZ006>008-011-230000-
...WEST CENTRAL VALLEYS...

CITY           SKY/WX    TMP DP  RH WIND       PRES   REMARKS
GRAND JUNCTION FAIR      70  25  18 SW17G31   29.85F
MONTROSE       FAIR      64  24  21 NE16      29.92F
EAGLE          MOSUNNY   59  27  29 W15       30.02R
RIFLE          CLOUDY    65  26  23 SE15      29.94S
DELTA          FAIR      69  24  18 NW10G17   29.88F
NUCLA          PTSUNNY   66  19  16 S20       29.96S
$$

COZ017>023-064>068-230000-
...SOUTHWEST COLORADO...

CITY           SKY/WX    TMP DP  RH WIND       PRES   REMARKS
DURANGO        FAIR      63  18  17 SE6       30.01F
CORTEZ         FAIR      68  18  14 SW12      29.94F
PAGOSA SPRINGS FAIR      58  23  25 CALM      30.07F
TELLURIDE      FAIR      55  21  26 SE14G20   30.10F
WOLF CREEK PAS CLOUDY    36  21  55 SW12G18   30.30F
$$

COZ009-010-012-014-032>034-037-058>063-230000-
...CENTRAL COLORADO...

CITY           SKY/WX    TMP DP  RH WIND       PRES   REMARKS
ASPEN          FAIR      56  26  31 N7        30.03F
BUENA VISTA    FAIR      64  13  13 W16G26    30.00F
COPPER MTN     CLOUDY    41  18  38 SW7G22    30.23F
BERTHOUD PASS  FAIR      36  27  69 SW18      30.24S
COTTONWOOD PAS FAIR      55  10  16 W15G24    30.11F
GUNNISON       NOT AVBL
KREMMLING      FAIR      63  21  20 SW15G23   30.00S
LEADVILLE      FAIR      49  16  26 W9G20     30.10F
MONARCH PASS   FAIR      45  18  33 SW26G37   30.32F
SALIDA         FAIR      67  12  11 W12G21    30.06F
SUNLIGHT       CLOUDY    34  27  75 SW13G23   30.19S WCI  25
WILKERSON PASS FAIR      50  12  22 SW9G26    30.19F
$$

COZ069>075-230000-
...SAN LUIS VALLEY/SANGRE DE CRISTO MOUNTAINS...

CITY           SKY/WX    TMP DP  RH WIND       PRES   REMARKS
ALAMOSA        FAIR      67  18  15 SW25G35   30.02F
LA VETA PASS   NOT AVBL
SAGUACHE       FAIR      66  12  12 NW15G24   30.02F
$$

COZ035-036-038>040-230000-
...NORTHERN COLORADO FRONT RANGE...

CITY           SKY/WX    TMP DP  RH WIND       PRES   REMARKS
DENVER INTL AP PTSUNNY   70  33  25 N13       29.84F
DMNS CITY PARK   N/A     64  32  30 N8G15     29.85S
AURORA         PTSUNNY   69  35  28 N14       29.85F
FRONT RANGE AP PTSUNNY   73  32  21 N13G24    29.84F
ERIE MUNI ARPT FAIR      67  30  25 N6        29.84F
BOULDER MUN AP FAIR      66  32  28 SE5       29.84F
CENTENNIAL     CLOUDY    71  32  23 N17       29.86S
BROOMFIELD     PTSUNNY   64  32  29 N6        29.88S
FORT COLLINS   FAIR      69  35  28 VRB3      29.85F
LONGMONT       FAIR      70  32  24 CALM      29.85F
$$

COZ041-046-047-076>085-087-088-230000-
...PIKES PEAK/PALMER DIVIDE AND SOUTHERN FOOTHILLS...

CITY           SKY/WX    TMP DP  RH WIND       PRES   REMARKS
COLO. SPRINGS  PTSUNNY   62  30  29 SE10      29.95F
A. F. ACADEMY  FAIR      59  31  34 S15       29.94F
SCHRIEVER AFB  FAIR      63  30  29 S16       29.95F
ELLICOTT         N/A    N/A N/A N/A S12       29.93F
FALCON         FAIR      59  29  31 S18       29.98F
FORT CARSON    MOSUNNY   64  32  29 SE9       29.93F
LIMON          FAIR      63  36  36 SE13G21   29.90F
MONUMENT HILL  FAIR      59  30  33 S17       29.95F
TRINIDAD       FAIR      79  27  14 S26G35    29.87F
$$

COZ042>045-048>051-090-091-230000-
...NORTHEAST COLORADO...

CITY           SKY/WX    TMP DP  RH WIND       PRES   REMARKS
GREELEY ARPT   FAIR      71  36  27 VRB3      29.83F
AKRON          FAIR      70  36  28 SE21G29   29.86F
BURLINGTON     FAIR      63  39  41 S26G33    29.92F
WRAY           NOT AVBL
STERLING       FAIR      72  37  28 S17G25    29.83F
HOLYOKE        FAIR      63  36  36 SE24      29.92R
FORT MORGAN    FAIR      78  25  14 SE13G20   29.82F
$$

COZ086-089-092>099-230000-
...SOUTHEAST COLORADO...

CITY           SKY/WX    TMP DP  RH WIND       PRES   REMARKS
PUEBLO         FAIR      68  34  28 SE8       29.86F
LA JUNTA       FAIR      82  38  20 SE18      29.80F
LAMAR          FAIR      74  41  30 SE22G30   29.86F
SPRINGFIELD      N/A     68  41  37 S28G36    29.92F
$$




USA.gov is the U.S. government's official web portal to all federal, state and local government web resources and services.